User: anonymous   Login
Location: Unspecified
(0.0000°N, 0.0000°E)
Time: 05:47:34
(UTC+00:00)
Language:

STARLINK-31232 - Orbit

View from above orbital plane
View from above orbital plane
View from above satellite
View from above satellite

Ground track
Ground track

The orbit is defined by the following mean orbital elements,

1 58831U          26145.56191694 +.00000000 +00000-0 +15078-4 0 00002
2 58831  53.1596 206.6954 0001186  81.3153 278.7983 15.31694146    09
Epoch (UTC): 25 May 2026 13:29:09
Eccentricity: 0.0001186
inclination: 53.1596°
perigee height: 470 km
apogee height: 472 km
right ascension of ascending node: 206.6954°
argument of perigee: 81.3153°
revolutions per day: 15.31694146
mean anomaly at epoch: 278.7983°

The dashed part of the orbit path shows where the satellite is in the earth's shadow,  

DLR